CW4778 Auckland NZ current weather conditions

sailwx.info

Wind from 163

Air temperature 13.9° C
Dewpoint 12.8° C

Last reported at 2014-Dec-22 14:48 UTC.
Time now 2014-Dec-22 15:37 UTC

Location: S 36°52' E 174°44'.
View on Google Maps.

See reports from other nearby stations

  
Tides and Currents Weather Stations Pressure Air Temp Water Temp Dewpoint Dewpoint Depression Visibility Wind Speed Wind Dir Waves Ship Positions
date/time (UTC)wind fromknots sea level pressurealtimeterstation pressurevisibilityair tempwater tempwave heightnotes
2014-Dec-22 14:48 163 13.9
2014-Dec-22 14:38 162 0 gusting 1 13.9
2014-Dec-22 14:28 161 0 gusting 6 13.9
2014-Dec-22 14:18 168 0 gusting 5 14.4
2014-Dec-22 14:08 170 2 gusting 6 14.4
2014-Dec-22 13:58 169 1 gusting 5 14.4
2014-Dec-22 13:38 176 0 gusting 5 14.4
2014-Dec-22 13:28 172 0 gusting 2 14.4
2014-Dec-22 13:18 176 0 gusting 5 15.0
2014-Dec-22 13:08 177 0 gusting 5 15.0
2014-Dec-22 12:48 172 1 gusting 7 15.0
2014-Dec-22 12:28 209 0 gusting 7 15.0
2014-Dec-22 12:18 179 1 gusting 6 15.0
2014-Dec-22 12:08 187 5 gusting 7 15.6
2014-Dec-22 11:58 218 5 gusting 10 15.6
2014-Dec-22 11:48 181 2 gusting 6 15.6
2014-Dec-22 11:38 193 3 gusting 7 15.6
2014-Dec-22 11:18 194 1 gusting 6 15.6
2014-Dec-22 11:08 186 2 gusting 7 15.6
2014-Dec-22 10:38 154 0 gusting 8 15.6
2014-Dec-22 10:28 218 3 gusting 7 16.1
2014-Dec-22 10:18 194 4 gusting 7 16.1
2014-Dec-22 10:08 184 5 gusting 7 16.1
2014-Dec-22 09:58 207 1 gusting 7 16.1
2014-Dec-22 09:48 180 3 gusting 8 16.1
2014-Dec-22 09:38 184 4 gusting 11 16.1
2014-Dec-22 09:28 183 2 gusting 7 16.1
2014-Dec-22 09:18 278 2 gusting 10 16.1
2014-Dec-22 09:08 192 5 gusting 8 16.1
2014-Dec-22 08:58 190 2 gusting 6 16.1
2014-Dec-22 08:48 228 1 gusting 7 16.7
2014-Dec-22 08:38 191 2 gusting 8 16.7
2014-Dec-22 08:28 182 4 gusting 8 16.7
2014-Dec-22 08:08 189 5 gusting 7 16.7
2014-Dec-22 07:58 198 2 gusting 12 17.2
2014-Dec-22 07:38 215 4 gusting 8 17.2
2014-Dec-22 07:08 212 5 gusting 12 17.8
2014-Dec-22 06:58 213 4 gusting 11 17.8
2014-Dec-22 06:48 214 2 gusting 13 18.3
2014-Dec-22 06:38 200 6 gusting 11 18.3
2014-Dec-22 06:28 208 5 gusting 10 18.3
2014-Dec-22 05:58 205 6 gusting 10 18.9
2014-Dec-22 05:48 210 4 gusting 8 19.4
2014-Dec-22 05:38 167 6 gusting 12 19.4
2014-Dec-22 05:28 193 5 gusting 11 20.0
2014-Dec-22 05:18 158 6 gusting 13 20.6
2014-Dec-22 05:08 180 4 gusting 12 20.6
2014-Dec-22 04:58 210 3 gusting 12 20.6
2014-Dec-22 04:38 203 7 gusting 13 20.6
2014-Dec-22 04:28 224 6 gusting 12 20.6
2014-Dec-22 04:18 236 4 gusting 13 21.1
2014-Dec-22 03:48 206 7 gusting 18 20.6
2014-Dec-22 03:38 213 6 gusting 14 21.1
2014-Dec-22 03:28 249 4 gusting 13 21.7
2014-Dec-22 03:18 290 8 gusting 14 22.2
2014-Dec-22 03:08 203 6 gusting 18 22.2
2014-Dec-22 02:58 157 6 gusting 13 22.8
2014-Dec-22 02:38 196 7 gusting 14 22.8
2014-Dec-22 02:18 149 10 gusting 14 22.2
2014-Dec-22 02:08 200 6 gusting 17 22.8
2014-Dec-22 01:58 180 8 gusting 13 22.8
2014-Dec-22 01:48 199 7 gusting 14 22.8
2014-Dec-22 01:38 213 7 gusting 13 23.3
2014-Dec-22 01:28 188 4 gusting 11 22.8
2014-Dec-22 01:18 170 6 gusting 13 23.3
2014-Dec-22 01:08 195 4 gusting 10 23.9
2014-Dec-22 00:38 178 4 gusting 11 23.3
2014-Dec-22 00:28 169 4 gusting 11 23.3
2014-Dec-22 00:18 190 5 gusting 11 22.8
2014-Dec-22 00:08 131 6 gusting 10 22.8
2014-Dec-21 23:58 181 6 gusting 10 23.3
2014-Dec-21 23:48 205 2 gusting 11 23.3
2014-Dec-21 23:38 180 5 gusting 8 23.3
2014-Dec-21 23:28 159 6 gusting 11 23.9
2014-Dec-21 23:18 163 5 gusting 10 23.3
2014-Dec-21 23:08 215 5 gusting 7 22.2
2014-Dec-21 22:58 202 4 gusting 11 22.8
2014-Dec-21 22:48 178 1 gusting 11 22.8
2014-Dec-21 22:18 190 2 gusting 8 23.3
2014-Dec-21 22:08 156 4 gusting 10 22.8
2014-Dec-21 21:58 189 1 gusting 7 22.8
2014-Dec-21 21:48 178 4 gusting 13 22.2
2014-Dec-21 21:28 187 5 gusting 12 21.1
2014-Dec-21 21:18 192 3 gusting 7 21.1
2014-Dec-21 21:08 215 2 gusting 6 20.6
2014-Dec-21 20:58 209 5 gusting 7 20.6
2014-Dec-21 20:38 183 3 gusting 7 18.3
2014-Dec-21 20:28 231 2 gusting 7 17.8
2014-Dec-21 20:18 212 3 gusting 6 18.3
2014-Dec-21 20:08 196 2 gusting 6 18.3
2014-Dec-21 19:58 236 2 gusting 7 18.3
2014-Dec-21 19:48 200 4 gusting 7 18.3
2014-Dec-21 19:38 248 2 gusting 7 18.9
2014-Dec-21 19:18 197 1 gusting 7 18.3
2014-Dec-21 19:08 216 1 gusting 8 17.8
2014-Dec-21 18:58 273 2 gusting 6 17.2
2014-Dec-21 18:48 242 16.1
2014-Dec-21 18:38 357 16.1
2014-Dec-21 18:28 242 15.6
2014-Dec-21 18:18 242 15.0
2014-Dec-21 18:08 240 14.4
2014-Dec-21 17:58 241 14.4
2014-Dec-21 17:48 243 13.9
2014-Dec-21 17:28 243 13.3
2014-Dec-21 17:18 242 13.3
2014-Dec-21 17:08 243 13.3
2014-Dec-21 16:48 243 13.3
2014-Dec-21 16:38 246 13.3
2014-Dec-21 16:28 243 13.3
2014-Dec-21 16:18 243 13.3
2014-Dec-21 16:08 242 13.9
2014-Dec-21 15:58 243 13.3
2014-Dec-21 15:48 243 13.3
2014-Dec-21 15:38 241 13.3
2014-Dec-21 15:18 302 13.9
2014-Dec-21 15:08 242 13.9
2014-Dec-21 14:48 244 13.9
2014-Dec-21 14:38 241 13.9
2014-Dec-21 14:28 241 13.9
2014-Dec-21 14:08 242 13.9
2014-Dec-21 13:58 242 13.9
2014-Dec-21 13:48 243 14.4
2014-Dec-21 13:38 243 14.4
2014-Dec-21 13:28 243 14.4
2014-Dec-21 13:18 241 14.4
2014-Dec-21 13:08 240 14.4
2014-Dec-21 12:58 242 14.4
2014-Dec-21 12:48 245 14.4
2014-Dec-21 12:38 244 14.4
2014-Dec-21 12:28 242 14.4
2014-Dec-21 11:58 244 15.0
2014-Dec-21 11:48 243 15.6
2014-Dec-21 11:38 242 15.6
2014-Dec-21 11:28 244 0 gusting 1 15.6
2014-Dec-21 11:18 243 0 gusting 2 15.6
2014-Dec-21 11:08 250 0 gusting 1 16.1
2014-Dec-21 10:58 242 16.1
2014-Dec-21 10:48 244 16.7
2014-Dec-21 10:38 244 16.7
2014-Dec-21 10:28 242 16.7
2014-Dec-21 10:18 242 17.2
2014-Dec-21 10:08 326 0 gusting 5 17.2
2014-Dec-21 09:48 305 1 gusting 5 17.2
2014-Dec-21 09:38 197 17.8
2014-Dec-21 09:28 194 0 gusting 6 17.8
2014-Dec-21 09:18 204 0 gusting 6 17.8
2014-Dec-21 09:08 200 3 gusting 6 17.8
2014-Dec-21 08:58 207 1 gusting 6 17.8
2014-Dec-21 08:48 222 2 gusting 6 17.8
2014-Dec-21 08:38 207 2 gusting 6 18.3
2014-Dec-21 08:28 182 18.3
2014-Dec-21 08:18 210 1 gusting 6 17.8
2014-Dec-21 08:08 229 1 gusting 6 18.3
2014-Dec-21 07:48 207 4 gusting 7 18.3
2014-Dec-21 07:38 179 2 gusting 7 18.9
2014-Dec-21 07:28 224 2 gusting 6 18.9
2014-Dec-21 07:18 257 3 gusting 7 19.4
2014-Dec-21 07:08 223 1 gusting 7 19.4
2014-Dec-21 06:48 283 1 gusting 7 20.0
2014-Dec-21 06:28 278 4 gusting 7 20.6
2014-Dec-21 06:08 291 0 gusting 6 21.1
2014-Dec-21 05:58 283 0 gusting 8 21.1
2014-Dec-21 05:48 268 2 gusting 7 21.1
2014-Dec-21 05:38 257 5 gusting 8 21.1
2014-Dec-21 05:18 339 1 gusting 7 21.7
2014-Dec-21 05:08 347 5 gusting 12 21.7
2014-Dec-21 04:58 267 6 gusting 11 22.2
2014-Dec-21 04:48 277 7 gusting 12 22.8
2014-Dec-21 04:38 273 1 gusting 10 22.8
2014-Dec-21 04:28 306 5 gusting 8 22.8
2014-Dec-21 04:18 305 0 gusting 10 22.8
2014-Dec-21 04:08 278 6 gusting 13 23.9
2014-Dec-21 03:58 264 4 gusting 10 23.9
2014-Dec-21 03:48 324 5 gusting 7 24.4
2014-Dec-21 03:38 289 4 gusting 8 25.0
2014-Dec-21 03:28 244 4 gusting 7 24.4
2014-Dec-21 03:18 279 5 gusting 11 24.4
2014-Dec-21 03:08 258 3 gusting 11 24.4
2014-Dec-21 02:58 310 5 gusting 7 25.0
2014-Dec-21 02:38 252 5 gusting 12 25.0
2014-Dec-21 02:28 292 5 gusting 10 25.0
2014-Dec-21 02:18 278 4 gusting 11 23.9
2014-Dec-21 02:08 271 2 gusting 7 23.9
2014-Dec-21 01:58 304 1 gusting 7 23.3
2014-Dec-21 01:48 332 0 gusting 5 24.4
2014-Dec-21 01:38 320 0 gusting 6 22.8
2014-Dec-21 01:28 335 2 gusting 7 22.8
2014-Dec-21 01:18 316 2 gusting 7 23.3
2014-Dec-21 01:08 291 1 gusting 7 24.4
2014-Dec-21 00:58 294 5 gusting 7 24.4
2014-Dec-21 00:48 288 3 gusting 7 23.9
2014-Dec-21 00:28 294 3 gusting 7 22.2
2014-Dec-21 00:18 297 2 gusting 7 22.8
2014-Dec-20 23:58 289 4 gusting 10 23.3
2014-Dec-20 23:48 310 5 gusting 11 23.9
2014-Dec-20 23:38 282 4 gusting 7 23.9
2014-Dec-20 23:28 253 4 gusting 11 23.9
2014-Dec-20 23:08 290 4 gusting 7 23.3
2014-Dec-20 22:58 311 5 gusting 10 22.2
2014-Dec-20 22:48 285 3 gusting 7 22.8
2014-Dec-20 22:38 265 4 gusting 8 22.2
2014-Dec-20 22:28 273 6 gusting 10 22.2
2014-Dec-20 22:18 255 4 gusting 7 22.2
2014-Dec-20 22:08 286 4 gusting 7 22.8
2014-Dec-20 21:58 282 6 gusting 8 22.8
2014-Dec-20 21:48 320 2 gusting 7 21.7
2014-Dec-20 21:38 259 4 gusting 8 22.2
2014-Dec-20 21:28 287 5 gusting 11 22.8
2014-Dec-20 21:18 275 5 gusting 11 22.2
2014-Dec-20 21:08 334 5 gusting 11 22.2
2014-Dec-20 20:58 293 4 gusting 10 21.7
2014-Dec-20 20:48 270 4 gusting 8 21.7
2014-Dec-20 20:38 255 1 gusting 7 21.1
2014-Dec-20 20:28 292 3 gusting 10 20.6
2014-Dec-20 20:18 286 5 gusting 8 20.0
2014-Dec-20 20:08 275 4 gusting 7 19.4
2014-Dec-20 19:58 297 1 gusting 6 19.4
2014-Dec-20 19:38 286 2 gusting 6 18.3
2014-Dec-20 19:18 253 0 gusting 5 18.3
2014-Dec-20 18:48 273 0 gusting 4 18.3
2014-Dec-20 18:38 310 0 gusting 1 18.3
2014-Dec-20 18:28 295 18.3
2014-Dec-20 18:18 320 17.8
2014-Dec-20 18:08 296 0 gusting 2 17.8
2014-Dec-20 17:58 304 0 gusting 5 17.8
2014-Dec-20 17:48 294 17.8
2014-Dec-20 17:38 019 0 gusting 2 17.8
2014-Dec-20 17:28 029 0 gusting 4 17.8
2014-Dec-20 17:18 037 17.8
2014-Dec-20 16:58 038 0 gusting 4 17.8
2014-Dec-20 16:48 037 0 gusting 1 17.8
2014-Dec-20 16:38 038 17.8
2014-Dec-20 16:28 038 17.8
2014-Dec-20 16:18 038 17.8
2014-Dec-20 15:58 038 17.8
2014-Dec-20 15:48 038 17.8
2014-Dec-20 15:38 036 17.8
2014-Dec-20 15:28 039 17.8
2014-Dec-20 15:18 037 17.8
2014-Dec-20 15:08 038 17.8